ROMMA est une association bénévole à but non lucratif. Votre soutien est indispensable : ADHERER à ROMMA ou FAIRE un DON

Le Versoud - (38, Isère)

Vallée du Grésivaudan (220 m)   Longitude: 05° 51' 44" E   Latitude: 45° 13' 06" N Station partenaire n°6
 

Détail journalier du     <<     >>

Température Humidité Pression Vent Dir Rafale Dir. rafale Ensol.
Heure (°C) (%) (hPa) (km/h) (km/h) (min)
01:00 22.678101600---0
02:00 21.780101700---0
03:00 20.983101600---0
04:00 19.986101700---0
05:00 19.785101700---0
06:00 19.287101700---0
07:00 19.387101800---0
08:00 21.678101700---55
09:00 23.970101700---60
10:00 24.965101703ENE60
11:00 27.159101603ENE60
12:00 29.155101603ENE60
13:00 30.250101605NE60
14:00 30.847101503NE25
15:00 32.440101403NE60
16:00 33.234101305NNE60
17:00 33.931101305NNO60
18:00 33.93710121NNO8NNO60
19:00 33.44210121NNO5NNO60
20:00 32.246101106NNO50
21:00 29.555101102N55
22:00 27.559101202N0
23:00 25.363101300---0
minuit 24.666101302N0

Graphique du 05-07-2019

 

Serveur OMMA